When you browse on this site, cookies collect data to enhance your experience and personalize the content and advertising you see.
Visit our Privacy Policy to learn more. By continuing to use the site, you agree to this use of cookies and data.
  • In Czech Republic
  • List of Countries
  • For 7 days
  • Water Temperature
  • Satellite Maps
  • Weather Map
  • Weather Widgets
  • user-avatar
    Login

    Hourly Weather Canberra

    Today, 17 December, Monday

    Time Temperature Precipitation Wind Pressure Humidity
    00:00 +16°C° 0 mm 1 mps 704 mmHg 67%
    01:00 +16°C° 0 mm 1 mps 704 mmHg 67%
    02:00 +15°C° 0 mm 1 mps 704 mmHg 67%
    03:00 +15°C° 0 mm 1 mps 704 mmHg 67%
    04:00 +15°C° 0 mm 1 mps 704 mmHg 72%
    05:00 +18°C° 0 mm 1 mps 704 mmHg 67%
    06:00 +20°C° 0 mm 1 mps 705 mmHg 61%
    07:00 +22°C° 0 mm 1 mps 705 mmHg 56%
    08:00 +23°C° 0 mm 2 mps 706 mmHg 50%
    09:00 +25°C° 0 mm 3 mps 706 mmHg 45%
    10:00 +27°C° 0 mm 3 mps 706 mmHg 40%
    11:00 +28°C° 0 mm 3 mps 706 mmHg 38%
    12:00 +29°C° 0 mm 3 mps 706 mmHg 36%
    13:00 +30°C° 0 mm 3 mps 706 mmHg 34%
    14:00 +30°C° 0 mm 3 mps 706 mmHg 36%
    15:00 +29°C° 0 mm 3 mps 706 mmHg 37%
    16:00 +29°C° 0 mm 3 mps 706 mmHg 38%
    17:00 +27°C° 0 mm 2 mps 706 mmHg 46%
    18:00 +25°C° 0 mm 2 mps 706 mmHg 54%
    19:00 +23°C° 0 mm 2 mps 706 mmHg 62%
    20:00 +20°C° 0 mm 2 mps 707 mmHg 70%
    21:00 +19°C° 0 mm 2 mps 707 mmHg 77%
    22:00 +17°C° 0 mm 2 mps 707 mmHg 85%
    23:00 +17°C° 0 mm 2 mps 707 mmHg 87%

    Tomorrow, 18 December, Tuesday

    Time Temperature Precipitation Wind Pressure Humidity
    00:00 +16°C° 0 mm 2 mps 707 mmHg 88%
    01:00 +16°C° 0 mm 2 mps 707 mmHg 90%
    02:00 +15°C° 0 mm 1 mps 707 mmHg 90%
    03:00 +15°C° 0 mm 1 mps 707 mmHg 90%
    04:00 +15°C° 0 mm 1 mps 707 mmHg 90%
    05:00 +16°C° 0 mm 1 mps 707 mmHg 83%
    06:00 +19°C° 0 mm 1 mps 708 mmHg 75%
    07:00 +21°C° 0 mm 1 mps 708 mmHg 67%
    08:00 +23°C° 0 mm 1 mps 709 mmHg 60%
    09:00 +26°C° 0 mm 1 mps 709 mmHg 53%
    10:00 +28°C° 0 mm 1 mps 709 mmHg 46%
    11:00 +29°C° 0 mm 2 mps 709 mmHg 42%
    12:00 +31°C° 0 mm 2 mps 709 mmHg 39%
    13:00 +32°C° 0 mm 2 mps 709 mmHg 35%
    14:00 +31°C° 0 mm 2 mps 709 mmHg 38%
    15:00 +30°C° 0 mm 3 mps 708 mmHg 42%
    16:00 +29°C° 0 mm 3 mps 708 mmHg 45%
    17:00 +26°C° 0 mm 3 mps 708 mmHg 56%
    18:00 +22°C° 0 mm 4 mps 708 mmHg 68%
    19:00 +20°C° 0 mm 4 mps 708 mmHg 79%
    20:00 +19°C° 0 mm 4 mps 709 mmHg 82%
    21:00 +18°C° 0 mm 3 mps 709 mmHg 84%
    22:00 +17°C° 0 mm 3 mps 710 mmHg 86%
    23:00 +17°C° 0 mm 3 mps 709 mmHg 87%

    Day after tomorrow, 19 December, Wednesday

    Time Temperature Precipitation Wind Pressure Humidity
    00:00 +17°C° 0 mm 3 mps 709 mmHg 89%
    01:00 +16°C° 0 mm 3 mps 709 mmHg 90%
    02:00 +16°C° 0 mm 2 mps 709 mmHg 90%
    03:00 +16°C° 0 mm 2 mps 708 mmHg 89%
    04:00 +16°C° 0 mm 2 mps 708 mmHg 89%
    05:00 +17°C° 0 mm 2 mps 708 mmHg 86%
    06:00 +18°C° 0 mm 2 mps 709 mmHg 84%
    07:00 +18°C° 0 mm 3 mps 709 mmHg 81%
    08:00 +20°C° 0 mm 3 mps 709 mmHg 73%
    09:00 +24°C° 0 mm 3 mps 709 mmHg 65%
    10:00 +26°C° 0 mm 3 mps 709 mmHg 57%
    11:00 +27°C° 0 mm 3 mps 709 mmHg 54%
    12:00 +28°C° 0 mm 3 mps 708 mmHg 50%
    13:00 +30°C° 0 mm 3 mps 708 mmHg 47%
    14:00 +29°C° 0.2 mm 3 mps 707 mmHg 51%
    15:00 +28°C° 0.2 mm 4 mps 706 mmHg 56%
    16:00 +27°C° 0.2 mm 4 mps 706 mmHg 60%
    17:00 +25°C° 0.4 mm 4 mps 706 mmHg 69%
    18:00 +22°C° 0.4 mm 4 mps 706 mmHg 78%
    19:00 +20°C° 0.4 mm 3 mps 705 mmHg 87%
    20:00 +19°C° 0.4 mm 3 mps 706 mmHg 88%
    21:00 +19°C° 0.4 mm 3 mps 706 mmHg 90%
    22:00 +18°C° 0.4 mm 3 mps 706 mmHg 91%
    23:00 +18°C° 0.1 mm 3 mps 706 mmHg 92%

    20 December, Thursday

    Time Temperature Precipitation Wind Pressure Humidity
    00:00 +18°C° 0.1 mm 3 mps 705 mmHg 93%
    01:00 +18°C° 0.1 mm 2 mps 704 mmHg 94%
    02:00 +18°C° 0 mm 2 mps 704 mmHg 95%
    03:00 +18°C° 0 mm 2 mps 703 mmHg 96%
    04:00 +19°C° 0 mm 1 mps 703 mmHg 97%
    05:00 +19°C° 0.1 mm 2 mps 703 mmHg 91%
    06:00 +21°C° 0.1 mm 2 mps 703 mmHg 86%
    07:00 +22°C° 0.1 mm 3 mps 703 mmHg 80%
    08:00 +27°C° 0 mm 4 mps 703 mmHg 67%
    09:00 +30°C° 0 mm 6 mps 702 mmHg 54%
    10:00 +34°C° 0 mm 8 mps 702 mmHg 40%
    11:00 +37°C° 0 mm 8 mps 701 mmHg 34%
    12:00 +38°C° 0 mm 8 mps 701 mmHg 28%
    13:00 +40°C° 0 mm 9 mps 700 mmHg 22%
    14:00 +40°C° 0 mm 9 mps 700 mmHg 20%
    15:00 +39°C° 0 mm 9 mps 699 mmHg 18%
    16:00 +39°C° 0 mm 9 mps 699 mmHg 16%
    17:00 +35°C° 0 mm 7 mps 699 mmHg 25%
    18:00 +32°C° 0 mm 6 mps 700 mmHg 35%
    19:00 +29°C° 0 mm 4 mps 700 mmHg 45%
    20:00 +27°C° 0 mm 4 mps 701 mmHg 52%
    21:00 +25°C° 0 mm 3 mps 701 mmHg 59%
    22:00 +22°C° 0 mm 3 mps 702 mmHg 66%
    23:00 +21°C° 0 mm 2 mps 702 mmHg 72%

    21 December, Friday

    Time Temperature Precipitation Wind Pressure Humidity
    00:00 +20°C° 0 mm 2 mps 702 mmHg 77%
    01:00 +20°C° 0 mm 1 mps 701 mmHg 83%
    02:00 +19°C° 0 mm 1 mps 701 mmHg 85%
    03:00 +18°C° 0 mm 1 mps 701 mmHg 87%
    04:00 +16°C° 0 mm 1 mps 702 mmHg 90%
    05:00 +19°C° 0 mm 1 mps 702 mmHg 83%
    06:00 +19°C° 0 mm 2 mps 703 mmHg 76%
    07:00 +20°C° 0 mm 2 mps 704 mmHg 69%
    08:00 +23°C° 0 mm 2 mps 704 mmHg 60%
    09:00 +25°C° 0 mm 1 mps 704 mmHg 51%
    10:00 +28°C° 0 mm 1 mps 704 mmHg 43%
    11:00 +28°C° 0 mm 1 mps 704 mmHg 41%
    12:00 +28°C° 0 mm 2 mps 704 mmHg 39%
    13:00 +29°C° 0 mm 2 mps 704 mmHg 38%
    14:00 +27°C° 0 mm 2 mps 703 mmHg 45%
    15:00 +25°C° 0 mm 3 mps 703 mmHg 53%
    16:00 +24°C° 0 mm 3 mps 703 mmHg 60%
    17:00 +21°C° 0 mm 3 mps 703 mmHg 67%
    18:00 +19°C° 0 mm 3 mps 703 mmHg 74%
    19:00 +18°C° 0 mm 3 mps 704 mmHg 82%
    20:00 +17°C° 0 mm 3 mps 704 mmHg 83%
    21:00 +17°C° 0 mm 3 mps 705 mmHg 85%
    22:00 +16°C° 0 mm 3 mps 705 mmHg 87%
    23:00 +16°C° 0.1 mm 2 mps 705 mmHg 88%

    22 December, Saturday

    Time Temperature Precipitation Wind Pressure Humidity
    00:00 +16°C° 0.1 mm 2 mps 705 mmHg 89%
    01:00 +16°C° 0.1 mm 2 mps 705 mmHg 90%
    02:00 +15°C° 0.2 mm 2 mps 705 mmHg 91%
    03:00 +15°C° 0.2 mm 1 mps 705 mmHg 91%
    04:00 +15°C° 0.2 mm 1 mps 705 mmHg 92%
    05:00 +16°C° 0.4 mm 2 mps 705 mmHg 89%
    06:00 +16°C° 0.4 mm 2 mps 706 mmHg 87%
    07:00 +16°C° 0.4 mm 2 mps 706 mmHg 85%
    08:00 +17°C° 0.5 mm 2 mps 706 mmHg 79%
    09:00 +18°C° 0.5 mm 2 mps 706 mmHg 74%
    10:00 +19°C° 0.5 mm 2 mps 707 mmHg 68%
    11:00 +20°C° 0.6 mm 3 mps 706 mmHg 67%
    12:00 +20°C° 0.6 mm 3 mps 706 mmHg 65%
    13:00 +20°C° 0.6 mm 3 mps 706 mmHg 64%
    14:00 +19°C° 1 mm 3 mps 706 mmHg 67%
    15:00 +19°C° 1 mm 4 mps 706 mmHg 70%
    16:00 +18°C° 1 mm 4 mps 706 mmHg 73%
    17:00 +17°C° 0.5 mm 4 mps 707 mmHg 76%
    18:00 +16°C° 0.5 mm 3 mps 708 mmHg 79%
    19:00 +14°C° 0.5 mm 3 mps 708 mmHg 83%
    20:00 +13°C° 0 mm 3 mps 709 mmHg 85%
    21:00 +12°C° 0 mm 3 mps 709 mmHg 87%
    22:00 +13°C° 0 mm 2 mps 710 mmHg 89%
    23:00 +12°C° 0 mm 2 mps 710 mmHg 91%
    Show more